Weather History for Starkville, MS

Change the Weather History Date:

Monday, November 5, 2012

  Actual Average Record
Temperature  
Mean Temperature 46 °F -  
Max Temperature 59 °F 66 °F 68 °F (2011)
Min Temperature 33 °F 43 °F 33 °F (2012)
Degree Days  
Heating Degree Days 19    
Moisture  
Dew Point 41 °F    
Average Humidity 85    
Maximum Humidity 100    
Minimum Humidity 45    
Precipitation  
Precipitation 0.17 in - - ()
Sea Level Pressure  
Sea Level Pressure 30.05 in    
Wind  
Wind Speed 1 mph (SE)    
Max Wind Speed 8 mph    
Max Gust Speed -    
Visibility 8 miles    
Events Fog , Rain    
Averages and records for this station are not official NWS values.
T = Trace of Precipitation, MM = Missing Value Source: NWS Daily Summary

Daily Weather History Graph

Daily Weather History Graph

Search for Another Location

Airport:

Trip Planner

Search our weather history database for the weather conditions in past years. The results will help you decide how hot, cold, wet, or windy it might be!

Date:

Astronomy

Nov. 05, 2012 Rise Set
Actual Time 6:18 AM CST 4:59 PM CST
Civil Twilight 5:52 AM CST 5:25 PM CST
Nautical Twilight 5:22 AM CST 5:54 PM CST
Astronomical Twilight 4:53 AM CST 6:24 PM CST
Moon 10:36 PM CST (11/5) 11:36 AM CST (11/5)
Length of Visible Light 11h 33m
Length of Day
10h 41m
Waning Gibbous, 62% of the Moon is Illuminated
Nov 5
Waning Gibbous
Nov 6
Last Quarter
Nov 13
New
Nov 20
First Quarter
Nov 28
Full

Hourly Weather History & Observations

Time (CST) Temp. Windchill Dew Point Humidity Pressure Visibility Wind Dir Wind Speed Gust Speed Precip Events Conditions
12:15 AM 37.4 °F - 37.4 °F 100% 30.12 in 5.0 mi Calm Calm - N/A   Clear
12:35 AM 37.4 °F - 37.4 °F 100% 30.11 in 5.0 mi Calm Calm - N/A   Clear
12:55 AM 37.4 °F - 37.4 °F 100% 30.11 in 7.0 mi Calm Calm - N/A   Clear
1:15 AM 37.4 °F - 37.4 °F 100% 30.12 in 5.0 mi Calm Calm - N/A   Clear
1:35 AM 37.4 °F - 37.4 °F 100% 30.12 in 5.0 mi Calm Calm - N/A   Clear
1:55 AM 37.4 °F - 35.6 °F 93% 30.11 in 7.0 mi Calm Calm - N/A   Clear
2:15 AM 37.4 °F - 35.6 °F 93% 30.11 in 5.0 mi Calm Calm - N/A   Clear
2:35 AM 37.4 °F - 35.6 °F 93% 30.11 in 7.0 mi Calm Calm - N/A   Clear
2:55 AM 35.6 °F - 35.6 °F 100% 30.11 in 7.0 mi Calm Calm - N/A   Clear
3:15 AM 35.6 °F - 35.6 °F 100% 30.11 in 7.0 mi Calm Calm - N/A   Clear
3:35 AM 35.6 °F - 35.6 °F 100% 30.11 in 10.0 mi Calm Calm - N/A   Scattered Clouds
3:55 AM 35.6 °F - 35.6 °F 100% 30.11 in 7.0 mi Calm Calm - N/A   Scattered Clouds
4:15 AM 35.6 °F - 33.8 °F 93% 30.11 in 7.0 mi Calm Calm - N/A   Clear
4:35 AM 35.6 °F - 35.6 °F 100% 30.11 in 7.0 mi Calm Calm - N/A   Clear
4:55 AM 33.8 °F - 33.8 °F 100% 30.11 in 2.5 mi Calm Calm - N/A   Clear
5:15 AM 33.8 °F - 33.8 °F 100% 30.11 in 7.0 mi Calm Calm - N/A   Clear
5:35 AM 33.8 °F - 33.8 °F 100% 30.12 in 5.0 mi Calm Calm - N/A   Clear
5:55 AM 33.8 °F - 33.8 °F 100% 30.11 in 7.0 mi Calm Calm - N/A   Clear
6:35 AM 33.8 °F - 33.8 °F 100% 30.10 in 7.0 mi Calm Calm - N/A   Clear
6:55 AM 33.8 °F - 33.8 °F 100% 30.10 in 5.0 mi Calm Calm - N/A   Clear
7:15 AM 37.4 °F - 37.4 °F 100% 30.10 in 10.0 mi Calm Calm - N/A   Clear
7:35 AM 42.8 °F 41.1 °F 41.0 °F 93% 30.09 in 10.0 mi East 3.5 mph - N/A   Clear
7:55 AM 44.6 °F - 41.0 °F 87% 30.10 in 10.0 mi Calm Calm - N/A   Clear
8:15 AM 46.4 °F 44.3 °F 42.8 °F 87% 30.09 in 10.0 mi ESE 4.6 mph - N/A   Clear
8:35 AM 48.2 °F - 41.0 °F 76% 30.09 in 10.0 mi ESE 8.1 mph - N/A   Clear
8:55 AM 50.0 °F - 41.0 °F 71% 30.09 in 10.0 mi ESE 4.6 mph - N/A   Clear
9:35 AM 50.0 °F - 41.0 °F 71% 30.10 in 10.0 mi SE 4.6 mph - N/A   Mostly Cloudy
9:55 AM 50.0 °F - 42.8 °F 76% 30.10 in 10.0 mi South 3.5 mph - N/A   Overcast
10:15 AM 50.0 °F - 42.8 °F 76% 30.09 in 10.0 mi SSE 3.5 mph - N/A   Overcast
10:35 AM 51.8 °F - 42.8 °F 71% 30.09 in 10.0 mi SE 4.6 mph - N/A   Overcast
10:55 AM 53.6 °F - 42.8 °F 67% 30.08 in 10.0 mi SE 5.8 mph - N/A   Mostly Cloudy
11:35 AM 53.6 °F - 42.8 °F 67% 30.06 in 10.0 mi SE 5.8 mph - N/A   Mostly Cloudy
11:55 AM 53.6 °F - 41.0 °F 62% 30.05 in 10.0 mi South 3.5 mph - N/A   Scattered Clouds
12:15 PM 55.4 °F - 42.8 °F 63% 30.04 in 10.0 mi Calm Calm - N/A   Mostly Cloudy
12:35 PM 55.4 °F - 41.0 °F 58% 30.04 in 10.0 mi Calm Calm - N/A   Overcast
12:55 PM 57.2 °F - 41.0 °F 55% 30.01 in 10.0 mi South 4.6 mph - N/A   Mostly Cloudy
1:15 PM 59.0 °F - 41.0 °F 51% 30.01 in 10.0 mi SSE 5.8 mph - N/A   Clear
1:35 PM 59.0 °F - 37.4 °F 45% 29.99 in 10.0 mi SE 8.1 mph - N/A   Mostly Cloudy
1:55 PM 59.0 °F - 37.4 °F 45% 29.99 in 10.0 mi South 3.5 mph - N/A   Mostly Cloudy
2:35 PM 57.2 °F - 41.0 °F 55% 29.95 in 10.0 mi SSE 4.6 mph - N/A   Mostly Cloudy
2:55 PM 57.2 °F - 37.4 °F 48% 29.97 in 10.0 mi SE 4.6 mph - N/A   Mostly Cloudy
3:15 PM 55.4 °F - 39.2 °F 54% 30.03 in 10.0 mi West 4.6 mph - N/A   Overcast
3:35 PM 55.4 °F - 41.0 °F 58% 30.01 in 10.0 mi Calm Calm - N/A Rain Light Rain
3:55 PM 55.4 °F - 41.0 °F 58% 30.01 in 10.0 mi Calm Calm - N/A   Mostly Cloudy
4:15 PM 55.4 °F - 41.0 °F 58% 29.99 in 10.0 mi Calm Calm - N/A Rain Light Rain
4:35 PM 51.8 °F - 46.4 °F 82% 30.00 in 10.0 mi Calm Calm - N/A Rain Light Rain
4:55 PM 50.0 °F - 48.2 °F 94% 29.99 in 10.0 mi Calm Calm - N/A Rain Light Rain
5:15 PM 50.0 °F - 48.2 °F 94% 29.99 in 10.0 mi Calm Calm - 0.01 in   Light Drizzle
5:35 PM 50.0 °F - 48.2 °F 94% 29.99 in 10.0 mi Calm Calm - 0.01 in   Overcast
5:55 PM 50.0 °F - 48.2 °F 94% 29.99 in 7.0 mi NNW 3.5 mph - 0.02 in Rain Rain
6:15 PM 50.0 °F - 46.4 °F 87% 30.01 in 10.0 mi Calm Calm - N/A Rain Light Rain
6:35 PM 48.2 °F - 46.4 °F 93% 30.03 in 7.0 mi NW 5.8 mph - 0.03 in Rain Heavy Rain
6:55 PM 48.2 °F - 44.6 °F 87% 30.03 in 10.0 mi NNW 6.9 mph - 0.07 in Rain Rain
7:15 PM 46.4 °F 42.4 °F 44.6 °F 93% 30.02 in 5.0 mi NNE 8.1 mph - 0.04 in Rain Heavy Rain
7:35 PM 46.4 °F 42.9 °F 44.6 °F 93% 29.99 in 10.0 mi East 6.9 mph - 0.07 in Rain Rain
7:55 PM 46.4 °F 43.5 °F 44.6 °F 93% 29.98 in 10.0 mi ESE 5.8 mph - 0.07 in   Light Drizzle
8:15 PM 46.4 °F 45.2 °F 44.6 °F 93% 29.97 in 10.0 mi ESE 3.5 mph - 0.01 in   Scattered Clouds
8:35 PM 44.6 °F - 44.6 °F 100% 29.98 in 10.0 mi Calm Calm - 0.01 in   Scattered Clouds
8:55 PM 44.6 °F - 44.6 °F 100% 29.99 in 10.0 mi Calm Calm - 0.01 in   Clear
9:15 PM 42.8 °F - 42.8 °F 100% 30.00 in 4.0 mi Calm Calm - N/A   Scattered Clouds
9:35 PM 44.6 °F - 44.6 °F 100% 30.00 in 7.0 mi Calm Calm - N/A   Overcast
9:55 PM 44.6 °F 43.1 °F 44.6 °F 100% 30.01 in 7.0 mi NW 3.5 mph - N/A   Overcast
10:15 PM 44.6 °F - 42.8 °F 93% 30.01 in 7.0 mi Calm Calm - N/A   Scattered Clouds
10:35 PM 42.8 °F - 42.8 °F 100% 30.01 in 7.0 mi Calm Calm - N/A   Clear
10:55 PM 42.8 °F - 42.8 °F 100% 30.00 in 4.0 mi Calm Calm - N/A   Clear
11:15 PM 42.8 °F - 42.8 °F 100% 30.00 in 2.0 mi Calm Calm - N/A   Clear
11:35 PM 41.0 °F - 41.0 °F 100% 30.00 in 0.5 mi Calm Calm - N/A Fog Fog
11:55 PM 41.0 °F - 41.0 °F 100% 29.99 in 1.5 mi Calm Calm - N/A   Mostly Cloudy